TimeEDT,TemperatureF,Dew PointF,Humidity,Sea Level PressureIn,VisibilityMPH,Wind Direction,Wind SpeedMPH,Gust SpeedMPH,PrecipitationIn,Events,Conditions,WindDirDegrees,DateUTC
12:53 AM,57.9,57.0,97,30.33,10.0,Calm,Calm,-,N/A,,Clear,0,2013-08-26 04:53:00
1:53 AM,55.0,54.0,96,30.32,9.0,Calm,Calm,-,0.01,,Clear,0,2013-08-26 05:53:00
2:22 AM,57.2,55.4,94,30.32,2.0,Calm,Calm,-,N/A,,Clear,0,2013-08-26 06:22:00
2:29 AM,55.4,55.4,100,30.31,0.8,Calm,Calm,-,N/A,,Clear,0,2013-08-26 06:29:00
2:50 AM,55.4,53.6,94,30.31,1.0,Calm,Calm,-,N/A,,Clear,0,2013-08-26 06:50:00
2:53 AM,55.9,55.0,97,30.31,1.2,Calm,Calm,-,N/A,,Clear,0,2013-08-26 06:53:00
2:58 AM,55.4,53.6,94,30.31,3.0,Calm,Calm,-,N/A,,Clear,0,2013-08-26 06:58:00
3:00 AM,53.6,53.6,100,30.30,1.5,Calm,Calm,-,N/A,,Clear,0,2013-08-26 07:00:00
3:12 AM,55.4,53.6,94,30.30,0.5,Calm,Calm,-,N/A,Fog,Fog,0,2013-08-26 07:12:00
3:39 AM,57.2,55.4,94,30.30,2.0,Calm,Calm,-,N/A,,Clear,0,2013-08-26 07:39:00
3:48 AM,55.4,53.6,94,30.30,0.8,Calm,Calm,-,N/A,,Clear,0,2013-08-26 07:48:00
3:53 AM,55.0,54.0,96,30.30,0.5,Calm,Calm,-,N/A,Fog,Fog,0,2013-08-26 07:53:00
3:59 AM,53.6,53.6,100,30.29,0.2,Calm,Calm,-,N/A,Fog,Fog,0,2013-08-26 07:59:00
4:09 AM,53.6,53.6,100,30.29,0.5,Calm,Calm,-,N/A,Fog,Fog,0,2013-08-26 08:09:00
4:19 AM,53.6,53.6,100,30.29,0.2,Calm,Calm,-,N/A,Fog,Fog,0,2013-08-26 08:19:00
4:21 AM,53.6,51.8,94,30.29,0.5,Calm,Calm,-,N/A,Fog,Fog,0,2013-08-26 08:21:00
4:53 AM,53.1,52.0,96,30.28,0.2,Calm,Calm,-,N/A,Fog,Fog,0,2013-08-26 08:53:00
5:03 AM,53.6,53.6,100,30.28,0.8,Calm,Calm,-,N/A,,Mist,0,2013-08-26 09:03:00
5:10 AM,53.6,51.8,94,30.28,1.2,Calm,Calm,-,N/A,,Scattered Clouds,0,2013-08-26 09:10:00
5:15 AM,51.8,51.8,100,30.28,3.0,Calm,Calm,-,N/A,,Scattered Clouds,0,2013-08-26 09:15:00
5:31 AM,51.8,51.8,100,30.29,1.2,Calm,Calm,-,N/A,,Partly Cloudy,0,2013-08-26 09:31:00
5:33 AM,51.8,51.8,100,30.29,0.8,Calm,Calm,-,N/A,,Mist,0,2013-08-26 09:33:00
5:50 AM,51.8,51.8,100,30.29,0.2,Calm,Calm,-,N/A,Fog,Fog,0,2013-08-26 09:50:00
5:53 AM,53.1,52.0,96,30.29,0.2,Calm,Calm,-,N/A,Fog,Fog,0,2013-08-26 09:53:00
6:20 AM,51.8,51.8,100,30.29,0.5,Calm,Calm,-,N/A,Fog,Fog,0,2013-08-26 10:20:00
6:28 AM,53.6,51.8,94,30.28,0.2,Calm,Calm,-,N/A,Fog,Fog,0,2013-08-26 10:28:00
6:41 AM,53.6,51.8,94,30.28,0.2,Calm,Calm,-,N/A,Fog,Fog,0,2013-08-26 10:41:00
6:53 AM,52.0,51.1,97,30.29,0.2,Calm,Calm,-,N/A,Fog,Fog,0,2013-08-26 10:53:00
7:33 AM,55.4,55.4,100,30.29,1.0,Calm,Calm,-,N/A,,Mist,0,2013-08-26 11:33:00
7:35 AM,55.4,55.4,100,30.29,2.0,Calm,Calm,-,N/A,,Partly Cloudy,0,2013-08-26 11:35:00
7:42 AM,57.2,57.2,100,30.29,10.0,Calm,Calm,-,N/A,,Partly Cloudy,0,2013-08-26 11:42:00
7:53 AM,57.9,57.9,100,30.29,10.0,Calm,Calm,-,N/A,,Clear,0,2013-08-26 11:53:00
8:53 AM,64.0,62.1,93,30.30,10.0,Calm,Calm,-,N/A,,Clear,0,2013-08-26 12:53:00
9:53 AM,72.0,60.1,66,30.30,10.0,NNW,3.5,-,N/A,,Clear,330,2013-08-26 13:53:00
10:53 AM,75.9,57.0,52,30.30,10.0,Variable,5.8,-,N/A,,Clear,0,2013-08-26 14:53:00
11:53 AM,78.1,57.0,48,30.28,10.0,NNW,5.8,-,N/A,,Clear,330,2013-08-26 15:53:00
12:53 PM,80.1,55.0,42,30.26,10.0,North,5.8,-,N/A,,Clear,10,2013-08-26 16:53:00
1:53 PM,82.0,55.9,41,30.23,10.0,Calm,Calm,-,N/A,,Clear,0,2013-08-26 17:53:00
2:53 PM,82.9,55.0,38,30.21,10.0,Variable,3.5,-,N/A,,Clear,0,2013-08-26 18:53:00
3:53 PM,84.9,57.0,38,30.17,10.0,SSW,8.1,-,N/A,,Clear,200,2013-08-26 19:53:00
4:53 PM,82.9,55.9,39,30.15,10.0,SW,3.5,-,N/A,,Clear,220,2013-08-26 20:53:00
5:53 PM,82.0,55.9,41,30.14,10.0,SW,6.9,-,N/A,,Clear,220,2013-08-26 21:53:00
6:53 PM,79.0,61.0,54,30.13,10.0,SSW,3.5,-,N/A,,Clear,200,2013-08-26 22:53:00
7:53 PM,70.0,62.1,76,30.12,10.0,Calm,Calm,-,N/A,,Clear,0,2013-08-26 23:53:00
8:53 PM,64.9,61.0,87,30.13,10.0,Calm,Calm,-,N/A,,Clear,0,2013-08-27 00:53:00
9:53 PM,64.0,61.0,90,30.13,10.0,Calm,Calm,-,N/A,,Clear,0,2013-08-27 01:53:00
10:53 PM,62.1,59.0,90,30.13,10.0,Calm,Calm,-,N/A,,Clear,0,2013-08-27 02:53:00
11:53 PM,62.1,60.1,93,30.13,10.0,Calm,Calm,-,N/A,,Clear,0,2013-08-27 03:53:00